Regional Weather Roundup
Issued by NWS

Home | Current Version | Previous Version | Text Only | Print | Product List | Glossary On
Versions: 1 2 3 4 5 6 7 8 9 10 11 12 13 14 15 16 17 18 19 20 21 22 23 24 25 26 27 28 29 30 31 32 33 34 35 36 37 38 39 40 41 42 43 44 45 46 47 48 49 50
747
ASUS44 KJAN 180003
RWRMS

MISSISSIPPI HOURLY WEATHER ROUNDUP
NATIONAL WEATHER SERVICE JACKSON MS
700 PM CDT FRI APR 17 2015

NOTE: "FAIR: INDICATES FEW OR NO CLOUDS BELOW 12,000 FEET WITH NO
SIGNIFICANT WEATHER AND/OR OBSTRUCTIONS TO VISIBILITY.

MSZ001>002-007>008-010>013-018>021-025>028-034>036-180100-
NORTHWEST MISSISSIPPI

CITY           SKY/WX    TMP DP  RH WIND       PRES   REMARKS
CLARKSDALE     CLOUDY    73  66  78 N6        29.97S
CLEVELAND      FAIR      73  66  79 NE6       29.95S
GREENWOOD      PTCLDY    72  62  71 E6        29.95R
6HR MIN TEMP:  65; 6HR MAX TEMP:  73; 6HR PCP:  0.85;

GREENVILLE     PTCLDY    74  62  66 NE12      29.93S
6HR MIN TEMP:  73; 6HR MAX TEMP:  77;

OLIVE BRANCH   PTCLDY    68  68 100 E5        29.99F
OXFORD         CLOUDY    66  63  88 E7        30.01R
TUNICA         CLEAR     72  64  78 NE7       29.98R
$$

MSZ003>006-009-014>017-022>024-029>033-037>039-180100-
NORTHEAST MISSISSIPPI

CITY           SKY/WX    TMP DP  RH WIND       PRES   REMARKS
COLUMBUS AFB   MOCLDY    67  64  89 NE2       29.97R
6HR MIN TEMP:  64; 6HR MAX TEMP:  68; 6HR PCP:  0.04;

CORINTH        CLOUDY    68  61  77 E3        30.00S
GOLDN TRIANGLE MOCLDY    68  63  83 NE7       29.96S
STARKVILLE     MOCLDY    68  63  83 NE3       29.97R
TUPELO         CLOUDY    69  62  78 E5        29.98F
6HR MIN TEMP:  63; 6HR MAX TEMP:  70; 6HR PCP:  0.21;

$$

MSZ040-058-180100-
CENTRAL MISSISSIPPI

CITY           SKY/WX    TMP DP  RH WIND       PRES   REMARKS
JACKSON INTL   MOCLDY    75  62  64 NW5       29.92S
6HR MIN TEMP:  71; 6HR MAX TEMP:  80; 6HR PCP:  0.01;

JACKSON HAWKNS PTCLDY    74  63  68 NW3       29.92F
6HR MIN TEMP:  72; 6HR MAX TEMP:  77; 6HR PCP:  0.04;

MERIDIAN KEY   LGT RAIN  68  64  87 NE7       29.96R
6HR MIN TEMP:  68; 6HR MAX TEMP:  78; 6HR PCP: TRACE;

MERIDIAN NAS   CLOUDY    68  62  81 E7        29.96S
6HR MIN TEMP:  68; 6HR MAX TEMP:  74;

RAYMOND        FAIR      73  68  83 CALM      29.91F
VICKSBURG      PTCLDY    74  63  68 CALM      29.92S
6HR MIN TEMP:  73; 6HR MAX TEMP:  81; 6HR PCP:  0.01;

$$

MSZ059>079-180100-
SOUTH MISSISSIPPI

CITY           SKY/WX    TMP DP  RH WIND       PRES   REMARKS
BROOKHAVEN       N/A     75  72  88 N5        29.94R
HATTIESBURG    MOCLDY    80  68  66 CALM      29.92R
6HR MIN TEMP:  79; 6HR MAX TEMP:  85;

MCCOMB         MOCLDY    79  65  62 NW5       29.92R
6HR MIN TEMP:  78; 6HR MAX TEMP:  83;

NATCHEZ        MOCLDY    77  66  69 CALM      29.92S
6HR MIN TEMP:  75; 6HR MAX TEMP:  81;

PINE BELT      CLOUDY    73  64  73 N12       29.94R
6HR MIN TEMP:  73; 6HR MAX TEMP:  82;

$$

MSZ080>082-180100-
COASTAL MISSISSIPPI

CITY           SKY/WX    TMP DP  RH WIND       PRES   REMARKS
BAY ST LOUIS   CLEAR     77  68  73 MISG      29.91R
BILOXI         MOCLDY    76  72  86 SW10      29.90S
6HR MIN TEMP:  76; 6HR MAX TEMP:  81;

PASCAGOULA     PTCLDY    75  71  87 S5        29.91R
6HR MIN TEMP:  74; 6HR MAX TEMP:  82;

GULFPORT       MOCLDY    77  69  76 SW7       29.90R
6HR MIN TEMP:  75; 6HR MAX TEMP:  83;

$$



USA.gov is the U.S. government's official web portal to all federal, state and local government web resources and services.